User: anonymous   Login
Location: Barcelona
(41.3830°N, 2.1830°E)
Time: 13:07:33
(UTC+02:00)
Language:

CAS-4B - Orbit

View from above orbital plane
View from above orbital plane
View from above satellite
View from above satellite

Ground track
Ground track

The orbit data is extracted from the following two-line orbital elements,

1 42759U 17034B   19293.13687005  .00000204  00000-0  25994-4 0  9995
2 42759  43.0192 272.7543 0012703 307.8829 152.3783 15.09657687129496
Epoch (UTC): 20 October 2019 03:17:05
Eccentricity: 0.0012703
inclination: 43.0192°
perigee height: 528 km
apogee height: 546 km
right ascension of ascending node: 272.7543°
argument of perigee: 307.8829°
revolutions per day: 15.09657687
mean anomaly at epoch: 152.3783°
orbit number at epoch: 12949

The dashed part of the orbit path shows where the satellite is in the earth's shadow,  

DLR